CDT,Max TemperatureF,Mean TemperatureF,Min TemperatureF,Max Dew PointF,MeanDew PointF,Min DewpointF,Max Humidity, Mean Humidity, Min Humidity, Max Sea Level PressureIn, Mean Sea Level PressureIn, Min Sea Level PressureIn, Max VisibilityMiles, Mean VisibilityMiles, Min VisibilityMiles, Max Wind SpeedMPH, Mean Wind SpeedMPH, Max Gust SpeedMPH,PrecipitationIn, CloudCover, Events, WindDirDegrees
2013-3-1,52,40,29,33,29,26,90,69,46,30.39,30.28,30.22,10,10,10,24,8,32,0.00,1,,341
2013-3-2,61,43,25,39,32,24,96,72,37,30.45,30.31,30.18,10,10,10,12,6,,0.00,0,,156
2013-3-3,77,54,30,38,33,29,94,55,21,30.16,29.85,29.55,10,10,10,22,9,28,0.00,0,,160
2013-3-4,73,58,44,43,36,29,69,47,31,30.07,29.71,29.50,10,10,10,41,15,48,0.01,1,,350
2013-3-5,53,43,30,32,20,14,66,42,21,30.45,30.33,30.10,10,10,10,33,21,46,0.01,0,,349
2013-3-6,53,40,26,26,23,20,79,55,32,30.46,30.32,30.14,10,10,10,15,7,20,0.00,2,,110
2013-3-7,71,53,35,40,29,22,63,43,23,30.13,30.06,29.97,10,10,10,22,13,29,0.00,1,,146
2013-3-8,62,56,50,59,53,43,94,84,70,30.04,29.94,29.82,10,10,10,24,15,32,0.00,7,,138
2013-3-9,70,62,51,63,56,29,100,87,25,29.84,29.73,29.61,10,9,2,26,14,33,0.17,7,Rain-Thunderstorm,163
2013-3-10,49,42,30,36,27,19,70,53,32,30.14,29.97,29.77,10,10,10,28,19,38,0.04,4,,316
2013-3-11,64,42,21,34,25,17,84,54,28,30.14,30.05,29.94,10,10,10,13,8,,0.00,0,,192
2013-3-12,59,47,36,39,33,26,81,56,39,30.35,30.18,29.95,10,10,10,24,13,31,0.00,0,,57
2013-3-13,67,48,30,40,35,30,98,66,31,30.45,30.36,30.28,10,10,10,14,6,20,0.00,0,,146
2013-3-14,77,57,37,48,41,35,92,62,28,30.27,30.19,30.08,10,10,10,13,7,,0.00,0,,128
2013-3-15,83,62,41,48,43,38,86,55,24,30.08,29.91,29.73,10,10,10,20,9,,0.00,0,,159
2013-3-16,74,60,48,52,45,38,82,60,41,29.78,29.71,29.67,10,10,10,29,11,34,0.00,0,,62
2013-3-17,57,48,38,43,37,32,81,68,55,29.89,29.79,29.65,10,10,10,29,16,40,0.00,3,,15
2013-3-18,62,51,40,41,37,29,100,73,28,30.00,29.87,29.62,10,9,7,26,14,37,0.00,2,,29
2013-3-19,59,48,36,42,37,28,86,63,48,30.21,30.07,29.98,10,10,10,17,7,23,0.00,1,,80
2013-3-20,62,48,35,39,32,26,86,53,25,30.36,30.18,29.96,10,10,10,14,9,,0.00,1,,75
2013-3-21,80,63,47,52,40,28,77,50,33,29.91,29.63,29.39,10,10,10,23,16,26,0.00,4,,127
2013-3-22,48,43,38,40,37,35,100,81,62,29.92,29.81,29.54,10,9,0,29,19,38,0.00,7,Fog-Rain,31
2013-3-23,50,44,36,45,40,31,100,88,76,30.01,29.83,29.69,10,9,2,26,10,37,0.00,8,Rain,37
2013-3-24,47,38,30,30,22,12,81,61,25,30.26,30.13,29.99,10,10,10,31,22,40,0.02,3,,335
2013-3-25,49,37,25,20,16,12,70,44,26,30.44,30.36,30.28,10,10,10,18,10,28,0.00,2,,346
2013-3-26,59,38,18,23,18,13,81,45,21,30.50,30.35,30.18,10,10,10,17,8,25,0.00,0,,124
2013-3-27,76,56,38,42,33,24,58,43,25,30.18,30.07,29.96,10,10,10,23,16,32,0.00,0,,150
2013-3-28,77,60,43,53,48,42,94,63,40,30.09,30.03,29.96,10,10,10,18,12,23,0.00,2,,141
2013-3-29,77,64,52,60,56,52,100,78,48,30.06,30.00,29.93,10,10,10,18,11,,0.00,3,,132
2013-3-30,82,64,46,60,53,46,100,87,39,29.99,29.94,29.84,10,7,1,9,5,,0.00,0,Rain,111
2013-3-31,70,60,48,60,49,41,100,73,38,30.07,29.96,29.84,10,10,6,40,16,52,0.19,3,Rain-Thunderstorm,32